QPF
0.00 0.00 0.00 0.00 0.00 0.00 0.00 0.00 0.00 0.00 0.00 0.00 0.00 0.00 0.00 0.00 0.00 0.00 0.00 0.00 0.00 0.00 0.00 0.00 0.00 0.00 0.00 0.00 0.00 0.00 0.00 0.00 0.00 0.00 0.00 0.00 0.00 0.00 0.00 0.00 0.00 0.00 0.00 0.00 0.00
0.00 0.00 0.00 0.00 0.00 0.00 0.00 0.00 0.00 0.00 0.00 0.00 0.00 0.00 0.00 0.00 0.00 0.00 0.00 0.00 0.00 0.00 0.00 0.00 0.00 0.00 0.00 0.00 0.00 0.00 0.00 0.00 0.00 0.00 0.00 0.00 0.00 0.00 0.00 0.00 0.00 0.00 0.00 0.00 0.00
0.00 0.00 0.00 0.00 0.00 0.00 0.00 0.00 0.00 0.00 0.00 0.00 0.00 0.00 0.00 0.00 0.00 0.00 0.00 0.00 0.00 0.00 0.00 0.00 0.00 0.00 0.00 0.00 0.00 0.00 0.00 0.00 0.00 0.00 0.00 0.00 0.00 0.00 0.00 0.00 0.00 0.00 0.00 0.00 0.00
0.00 0.00 0.00 0.00 0.00 0.00 0.00 0.00 0.00 0.00 0.00 0.00 0.00 0.00 0.00 0.00 0.00 0.00 0.00 0.00 0.00 0.00 0.00 0.00 0.00 0.00 0.00 0.00 0.00 0.00 0.00 0.00 0.00 0.00 0.00 0.00 0.00 0.00 0.00 0.00 0.00 0.00 0.00 0.00 0.00
0.00 0.00 0.00 0.00 0.00 0.00 0.00 0.00 0.00 0.00 0.00 0.00 0.00 0.00 0.00 0.00 0.00 0.00 0.00 0.00 0.00 0.00 0.00 0.00 0.00 0.00 0.00 0.00 0.00 0.00 0.00 0.00 0.00 0.00 0.00 0.00 0.00 0.00 0.00 0.00 0.00 0.00 0.00 0.00 0.00
0.00 0.00 0.00 0.00 0.00 0.00 0.00 0.00 0.00 0.00 0.00 0.00 0.00 0.00 0.00 0.00 0.00 0.00 0.00 0.00 0.00 0.00 0.00 0.00 0.00 0.00 0.00 0.00 0.00 0.00 0.00 0.00 0.00 0.00 0.00 0.00 0.00 0.00 0.00 0.00 0.00 0.00 0.00 0.00 0.00
0.00 0.00 0.00 0.00 0.00 0.00 0.00 0.00 0.00 0.00 0.00 0.00 0.00 0.00 0.00 0.00 0.00 0.00 0.00 0.00 0.00 0.00 0.00 0.00 0.00 0.00 0.00 0.00 0.00 0.00 0.00 0.00 0.00 0.00 0.00 0.00 0.00 0.00 0.00 0.00 0.00 0.00 0.00 0.00 0.00
0.00 0.00 0.00 0.00 0.00 0.00 0.00 0.00 0.00 0.00 0.00 0.00 0.00 0.00 0.00 0.00 0.00 0.00 0.00 0.00 0.00 0.00 0.00 0.00 0.00 0.00 0.00 0.00 0.00 0.00 0.00 0.00 0.00 0.00 0.00 0.00 0.00 0.00 0.00 0.00 0.00 0.00 0.00 0.00 0.00
0.00 0.00 0.00 0.00 0.00 0.00 0.00 0.00 0.00 0.00 0.00 0.00 0.00 0.00 0.00 0.00 0.00 0.00 0.00 0.00 0.00 0.00 0.00 0.00 0.00 0.00 0.00 0.00 0.00 0.00 0.00 0.00 0.00 0.00 0.00 0.00 0.00 0.00 0.00 0.00 0.00 0.00 0.00 0.00 0.00
0.00 0.00 0.00 0.00 0.00 0.00 0.00 0.00 0.00 0.00 0.00 0.00 0.00 0.00 0.00 0.00 0.00 0.00 0.00 0.00 0.00 0.00 0.00 0.00 0.00 0.00 0.00 0.00 0.00 0.00 0.00 0.00 0.00 0.00 0.00 0.00 0.00 0.00 0.00 0.00 0.00 0.00 0.00 0.00 0.00
0.00 0.00 0.00 0.00 0.00 0.00 0.00 0.00 0.00 0.00 0.00 0.00 0.00 0.00 0.00 0.00 0.00 0.00 0.00 0.00 0.00 0.00 0.00 0.00 0.00 0.00 0.00 0.00 0.00 0.00 0.00 0.00 0.00 0.00 0.00 0.00 0.00 0.00 0.00 0.00 0.00 0.00 0.00 0.00 0.00
0.00 0.00 0.00 0.00 0.00 0.00 0.00 0.00 0.00 0.00 0.00 0.00 0.00 0.00 0.00 0.00 0.00 0.00 0.00 0.00 0.00 0.00 0.00 0.00 0.00 0.00 0.00 0.00 0.00 0.00 0.00 0.00 0.00 0.00 0.00 0.00 0.00 0.00 0.00 0.00 0.00 0.00 0.00 0.00 0.00
0.00 0.00 0.00 0.00 0.00 0.00 0.00 0.00 0.00 0.00 0.00 0.00 0.00 0.00 0.00 0.00 0.00 0.00 0.00 0.00 0.00 0.00 0.00 0.00 0.00 0.00 0.00 0.00 0.00 0.00 0.00 0.00 0.00 0.00 0.00 0.00 0.00 0.00 0.00 0.00 0.00 0.00 0.00 0.00 0.00
0.00 0.00 0.00 0.00 0.00 0.00 0.00 0.00 0.00 0.00 0.00 0.00 0.00 0.00 0.00 0.00 0.00 0.00 0.00 0.00 0.00 0.00 0.00 0.00 0.00 0.00 0.00 0.00 0.00 0.00 0.00 0.00 0.00 0.00 0.00 0.00 0.00 0.00 0.00 0.00 0.00 0.00 0.00 0.00 0.00
0.00 0.00 0.00 0.00 0.00 0.00 0.00 0.00 0.00 0.00 0.00 0.00 0.00 0.00 0.00 0.00 0.00 0.00 0.00 0.00 0.00 0.00 0.00 0.00 0.00 0.00 0.00 0.00 0.00 0.00 0.00 0.00 0.00 0.00 0.00 0.00 0.00 0.00 0.00 0.00 0.00 0.00 0.00 0.00 0.00
0.00 0.00 0.00 0.00 0.00 0.00 0.00 0.00 0.00 0.00 0.00 0.00 0.00 0.00 0.00 0.00 0.00 0.00 0.00 0.00 0.00 0.00 0.00 0.00 0.00 0.00 0.00 0.00 0.00 0.00 0.00 0.00 0.00 0.00 0.00 0.00 0.00 0.00 0.00 0.00 0.00 0.00 0.00 0.00 0.00
0.00 0.00 0.00 0.00 0.00 0.00 0.00 0.00 0.00 0.00 0.00 0.00 0.00 0.00 0.00 0.00 0.00 0.00 0.00 0.00 0.00 0.00 0.00 0.00 0.00 0.00 0.00 0.00 0.00 0.00 0.00 0.00 0.00 0.00 0.00 0.00 0.00 0.00 0.00 0.00 0.00 0.00 0.00 0.00 0.00
0.00 0.00 0.00 0.00 0.00 0.00 0.00 0.00 0.00 0.00 0.00 0.00 0.00 0.00 0.00 0.00 0.00 0.00 0.00 0.00 0.00 0.00 0.00 0.00 0.00 0.00 0.00 0.00 0.00 0.00 0.00 0.00 0.00 0.00 0.00 0.00 0.00 0.00 0.00 0.00 0.00 0.00 0.00 0.00 0.00
0.00 0.00 0.00 0.00 0.00 0.00 0.00 0.00 0.00 0.00 0.00 0.00 0.00 0.00 0.00 0.00 0.00 0.00 0.00 0.00 0.00 0.00 0.00 0.00 0.00 0.00 0.00 0.00 0.00 0.00 0.00 0.00 0.00 0.00 0.00 0.00 0.00 0.00 0.00 0.00 0.00 0.00 0.00 0.00 0.00
0.00 0.00 0.00 0.00 0.00 0.00 0.00 0.00 0.00 0.00 0.00 0.00 0.00 0.00 0.00 0.00 0.00 0.00 0.00 0.00 0.00 0.00 0.00 0.00 0.00 0.00 0.00 0.00 0.00 0.00 0.00 0.00 0.00 0.00 0.00 0.00 0.00 0.00 0.00 0.00 0.00 0.00 0.00 0.00 0.00
0.00 0.00 0.00 0.00 0.00 0.01 0.00 0.00 0.00 0.00 0.00 0.00 0.00 0.00 0.00 0.00 0.00 0.00 0.00 0.00 0.00 0.00 0.00 0.00 0.00 0.00 0.00 0.00 0.00 0.00 0.00 0.00 0.00 0.00 0.00 0.00 0.00 0.00 0.00 0.00 0.00 0.00 0.00 0.00 0.00
0.00 0.00 0.00 0.00 0.01 0.00 0.00 0.00 0.00 0.00 0.00 0.00 0.00 0.00 0.00 0.00 0.00 0.00 0.00 0.00 0.00 0.00 0.00 0.00 0.00 0.00 0.00 0.00 0.00 0.00 0.00 0.00 0.00 0.00 0.00 0.00 0.00 0.00 0.00 0.00 0.00 0.00 0.00 0.00 0.00
0.00 0.00 0.00 0.00 0.00 0.00 0.00 0.00 0.00 0.00 0.00 0.00 0.00 0.00 0.00 0.00 0.00 0.00 0.00 0.00 0.00 0.00 0.00 0.00 0.00 0.00 0.00 0.00 0.00 0.00 0.00 0.00 0.00 0.00 0.00 0.00 0.00 0.00 0.00 0.00 0.00 0.00 0.00 0.00 0.00
0.00 0.00 0.00 0.00 0.00 0.00 0.00 0.00 0.00 0.00 0.00 0.00 0.00 0.00 0.00 0.00 0.00 0.00 0.00 0.00 0.00 0.00 0.00 0.00 0.00 0.00 0.00 0.00 0.00 0.00 0.00 0.00 0.00 0.00 0.00 0.00 0.00 0.00 0.00 0.00 0.00 0.00 0.00 0.00 0.00
0.00 0.00 0.00 0.00 0.00 0.00 0.00 0.00 0.00 0.00 0.00 0.00 0.00 0.00 0.00 0.00 0.00 0.00 0.00 0.00 0.00 0.00 0.00 0.00 0.00 0.00 0.00 0.00 0.00 0.00 0.00 0.00 0.00 0.00 0.00 0.00 0.00 0.00 0.00 0.00 0.00 0.00 0.00 0.00 0.00
0.00 0.00 0.00 0.00 0.00 0.00 0.00 0.00 0.00 0.00 0.00 0.00 0.00 0.00 0.00 0.00 0.00 0.00 0.00 0.00 0.00 0.00 0.00 0.00 0.00 0.00 0.00 0.00 0.00 0.00 0.00 0.00 0.00 0.00 0.00 0.00 0.00 0.00 0.00 0.00 0.00 0.00 0.00 0.00 0.00
0.00 0.00 0.00 0.00 0.00 0.00 0.00 0.00 0.00 0.00 0.00 0.00 0.00 0.00 0.00 0.00 0.00 0.00 0.00 0.00 0.00 0.00 0.00 0.00 0.00 0.00 0.00 0.00 0.00 0.00 0.00 0.00 0.00 0.00 0.00 0.00 0.00 0.00 0.00 0.00 0.00 0.00 0.00 0.00 0.00
MSLP
1023.28 1022.98 1022.65 1022.31 1021.94 1021.58 1021.21 1020.82 1020.41 1020.00 1019.62 1019.16 1018.67 1018.20 1017.76 1017.28 1016.41 1015.75 1015.18 1014.04 1013.83 1013.70 1013.70 1013.57 1013.26 1013.28 1013.29 1013.68 1014.07 1014.68 1015.72 1016.08 1015.53 1015.34 1014.64 1014.53 1014.83 1015.08 1015.21 1015.73 1016.28 1016.75 1017.28 1017.48 1018.04
1023.38 1023.07 1022.72 1022.39 1022.04 1021.63 1021.19 1020.78 1020.35 1019.91 1019.47 1019.02 1018.55 1018.11 1017.69 1017.35 1016.78 1015.39 1013.93 1013.72 1013.73 1013.73 1013.76 1013.78 1013.69 1013.64 1013.87 1014.01 1014.36 1014.87 1015.69 1015.38 1014.76 1014.54 1014.35 1014.41 1014.64 1015.01 1015.43 1015.91 1016.28 1016.71 1017.19 1017.55 1018.28
1023.35 1023.05 1022.70 1022.33 1021.98 1021.59 1021.15 1020.72 1020.28 1019.82 1019.33 1018.85 1018.42 1018.01 1017.54 1017.28 1016.61 1014.40 1013.54 1013.64 1013.75 1013.89 1013.95 1013.85 1013.85 1013.95 1014.21 1014.25 1014.44 1014.82 1015.02 1014.63 1014.26 1014.02 1013.98 1014.25 1014.54 1014.85 1015.33 1016.09 1015.82 1016.13 1017.00 1017.81 1018.52
1023.30 1023.03 1022.67 1022.29 1021.88 1021.45 1021.00 1020.52 1020.08 1019.63 1019.18 1018.74 1018.32 1017.87 1017.36 1017.16 1016.04 1013.80 1013.52 1013.60 1013.73 1013.89 1013.93 1013.86 1013.93 1014.27 1014.51 1014.60 1014.42 1014.70 1014.36 1014.23 1014.05 1013.94 1014.00 1014.28 1014.40 1014.76 1015.12 1014.65 1014.61 1015.16 1016.22 1017.50 1018.33
1023.26 1022.98 1022.62 1022.18 1021.73 1021.29 1020.77 1020.23 1019.76 1019.34 1018.97 1018.61 1018.23 1017.81 1017.15 1016.79 1015.21 1013.54 1013.58 1013.67 1013.80 1013.88 1013.93 1013.98 1014.22 1014.55 1014.78 1014.81 1014.55 1014.51 1014.35 1014.16 1014.04 1014.06 1014.07 1014.25 1014.48 1014.80 1014.54 1014.40 1014.88 1015.49 1016.51 1017.21 1017.80
1023.26 1022.87 1022.44 1021.98 1021.51 1020.99 1020.40 1019.80 1019.33 1018.96 1018.64 1018.34 1018.06 1017.86 1017.47 1016.36 1014.02 1013.64 1013.69 1013.78 1013.86 1013.90 1014.00 1014.07 1014.30 1014.50 1014.76 1014.75 1014.77 1014.61 1014.51 1014.37 1014.24 1014.29 1014.35 1014.56 1014.71 1014.84 1013.98 1014.25 1015.19 1015.87 1016.29 1016.85 1017.27
1023.20 1022.84 1022.38 1021.87 1021.30 1020.65 1020.00 1019.32 1018.77 1018.45 1018.23 1018.01 1017.88 1017.82 1017.19 1015.36 1014.05 1014.01 1013.93 1013.80 1013.77 1013.87 1014.05 1014.17 1014.27 1014.56 1014.80 1014.86 1014.75 1014.78 1014.95 1014.79 1014.37 1014.43 1014.64 1014.79 1015.05 1014.38 1013.93 1014.52 1015.34 1016.06 1016.37 1016.63 1016.75
1023.28 1022.86 1022.36 1021.78 1021.09 1020.33 1019.48 1018.75 1018.10 1017.72 1017.68 1017.68 1017.68 1017.71 1016.29 1014.24 1014.06 1014.00 1013.91 1013.87 1013.77 1013.81 1014.03 1014.11 1014.26 1014.64 1015.05 1015.11 1015.25 1015.45 1015.65 1015.78 1014.71 1014.78 1014.83 1015.18 1014.72 1013.71 1013.92 1014.56 1015.30 1015.94 1016.45 1016.46 1016.45
1023.38 1022.92 1022.34 1021.70 1020.96 1020.02 1018.95 1018.11 1017.53 1017.07 1017.29 1017.53 1017.69 1017.51 1015.76 1014.01 1013.91 1013.68 1013.85 1014.04 1013.96 1014.00 1014.10 1014.26 1014.57 1015.47 1015.61 1016.11 1016.52 1016.57 1016.44 1016.30 1015.51 1015.00 1015.23 1015.55 1015.10 1013.92 1013.92 1014.54 1015.08 1015.51 1015.86 1016.08 1016.02
1023.56 1023.02 1022.33 1021.68 1020.89 1019.79 1018.59 1017.58 1017.29 1017.23 1017.34 1017.38 1017.32 1017.60 1015.47 1014.37 1013.79 1013.60 1013.72 1013.93 1014.22 1014.41 1014.77 1015.07 1015.81 1016.31 1016.75 1016.82 1017.00 1016.83 1016.71 1016.30 1016.12 1015.41 1015.55 1015.74 1014.76 1013.97 1013.87 1014.44 1014.77 1014.96 1015.07 1015.30 1015.26
1023.67 1023.16 1022.48 1021.67 1020.93 1019.80 1018.77 1017.84 1018.48 1018.10 1018.00 1017.67 1017.41 1016.77 1015.62 1014.53 1013.99 1013.88 1013.77 1014.04 1014.52 1015.18 1015.81 1016.14 1016.66 1016.95 1016.53 1016.50 1016.35 1016.41 1016.51 1016.48 1015.89 1015.40 1015.68 1015.34 1014.80 1013.54 1013.13 1013.78 1014.02 1014.36 1014.39 1014.36 1014.19
1023.68 1023.20 1022.63 1021.74 1020.99 1020.26 1019.64 1020.41 1021.51 1021.68 1019.85 1017.48 1017.02 1016.75 1015.84 1015.25 1014.80 1014.22 1014.07 1014.52 1015.03 1015.88 1016.28 1016.81 1016.76 1016.21 1016.15 1016.06 1016.12 1016.18 1016.32 1016.31 1015.72 1015.49 1015.80 1015.24 1014.16 1012.72 1012.16 1012.07 1012.04 1012.51 1013.03 1013.04 1013.34
1023.81 1023.30 1022.69 1021.80 1021.01 1020.75 1021.11 1021.50 1021.32 1021.16 1020.71 1017.53 1016.31 1015.77 1015.13 1015.09 1014.98 1014.49 1014.48 1014.85 1015.32 1015.96 1016.44 1016.91 1016.26 1015.82 1015.98 1015.84 1015.98 1016.05 1016.23 1016.24 1016.47 1016.00 1015.85 1015.72 1013.63 1012.01 1010.71 1010.67 1010.94 1010.91 1010.92 1011.57 1011.77
1023.94 1023.51 1022.90 1021.90 1021.36 1021.66 1021.28 1021.10 1020.97 1020.83 1020.32 1017.14 1015.72 1014.64 1014.56 1014.65 1014.87 1014.32 1014.40 1014.89 1015.51 1015.92 1016.44 1016.54 1015.91 1015.79 1015.81 1015.92 1015.99 1016.10 1015.91 1016.23 1016.58 1017.02 1017.09 1016.54 1015.59 1012.31 1010.57 1010.31 1010.25 1010.05 1010.45 1010.34 1010.73
1024.08 1023.64 1023.10 1022.52 1022.54 1022.06 1021.62 1021.04 1020.67 1020.72 1019.61 1016.43 1015.09 1014.20 1014.37 1014.82 1014.84 1014.62 1014.50 1014.74 1015.42 1015.90 1016.47 1016.12 1015.74 1015.68 1015.80 1015.76 1015.88 1016.11 1016.20 1016.70 1016.99 1017.55 1017.85 1017.20 1016.83 1011.52 1010.71 1009.76 1009.08 1008.83 1008.92 1009.26 1009.60
1024.11 1023.60 1023.32 1022.80 1022.63 1021.90 1021.45 1020.88 1020.74 1020.63 1018.02 1015.96 1015.03 1014.71 1014.94 1015.06 1015.11 1014.98 1014.85 1014.91 1015.41 1016.03 1016.39 1016.21 1015.69 1015.44 1015.42 1015.67 1015.95 1016.31 1016.78 1017.37 1017.95 1018.31 1018.32 1016.96 1016.59 1011.76 1010.27 1008.67 1008.05 1007.72 1008.06 1008.39 1009.00
1024.03 1023.46 1023.22 1022.88 1022.36 1021.72 1021.46 1021.26 1021.29 1020.04 1017.22 1016.32 1015.57 1015.34 1015.58 1015.72 1015.58 1015.52 1015.63 1015.81 1016.21 1016.93 1017.07 1016.52 1015.86 1015.32 1015.17 1015.90 1016.31 1016.85 1017.86 1018.51 1018.87 1018.85 1018.22 1016.76 1016.26 1011.46 1009.13 1008.04 1007.59 1007.36 1007.30 1007.55 1008.18
1023.99 1023.28 1022.82 1022.49 1022.17 1022.08 1021.88 1021.95 1021.16 1018.85 1017.57 1016.34 1015.97 1015.99 1016.11 1015.97 1016.09 1016.16 1016.40 1016.66 1016.69 1017.10 1017.56 1017.22 1016.26 1015.79 1015.54 1015.66 1016.44 1017.40 1018.12 1018.94 1019.24 1019.20 1018.20 1016.65 1014.45 1009.72 1007.95 1007.20 1006.85 1006.84 1006.84 1007.07 1007.71
1023.82 1023.46 1023.09 1022.53 1022.24 1022.23 1022.35 1022.25 1020.41 1019.18 1018.14 1017.16 1016.44 1016.46 1016.46 1016.19 1016.39 1016.72 1016.91 1017.00 1016.61 1016.67 1017.26 1017.28 1016.64 1016.08 1015.93 1015.87 1016.20 1017.68 1018.37 1018.50 1018.91 1019.35 1018.85 1015.89 1012.85 1009.30 1007.72 1007.17 1006.84 1006.57 1006.74 1006.95 1007.14
1024.69 1024.32 1023.49 1022.68 1022.40 1022.37 1022.78 1022.15 1020.73 1019.45 1018.56 1017.84 1017.31 1016.88 1016.82 1016.63 1017.00 1017.21 1017.07 1016.23 1016.14 1015.89 1015.95 1016.85 1016.96 1016.52 1016.32 1016.35 1016.81 1016.93 1017.69 1018.68 1019.47 1019.94 1019.11 1015.95 1013.78 1010.55 1008.45 1007.94 1007.19 1007.01 1006.97 1007.13 1007.22
1024.96 1024.68 1023.15 1022.63 1022.51 1022.72 1023.10 1022.31 1020.90 1019.88 1019.12 1018.73 1018.16 1017.76 1017.44 1017.26 1017.20 1017.29 1016.78 1016.01 1015.62 1015.92 1016.10 1016.50 1017.06 1017.26 1016.89 1016.79 1016.96 1017.66 1017.93 1018.77 1019.74 1019.81 1019.31 1017.32 1012.97 1009.74 1008.97 1008.62 1008.14 1007.57 1007.11 1007.00 1007.11
1025.58 1025.18 1023.37 1022.64 1023.25 1023.00 1022.75 1021.93 1020.83 1020.14 1019.67 1019.36 1018.77 1018.46 1018.28 1018.29 1017.89 1017.57 1016.88 1016.14 1015.64 1015.79 1016.34 1016.35 1017.07 1017.39 1016.87 1016.46 1016.51 1016.81 1017.16 1017.86 1019.37 1019.44 1018.84 1017.46 1012.17 1009.08 1008.73 1008.36 1007.96 1007.68 1007.36 1007.12 1007.01
1026.53 1025.79 1023.98 1023.61 1023.75 1023.78 1022.96 1022.05 1021.26 1020.72 1020.46 1020.17 1019.80 1019.37 1019.30 1019.30 1019.16 1018.14 1017.13 1016.22 1015.96 1015.96 1016.14 1016.41 1016.87 1017.41 1017.08 1017.09 1016.92 1016.91 1016.87 1017.21 1017.73 1017.96 1017.38 1016.88 1011.37 1008.74 1008.31 1007.88 1007.57 1007.69 1007.51 1007.37 1007.23
1027.04 1026.83 1025.60 1025.02 1024.95 1024.40 1023.86 1022.86 1021.96 1021.05 1020.92 1020.78 1020.47 1020.19 1020.00 1019.71 1019.44 1018.84 1018.20 1017.02 1016.46 1016.45 1016.26 1016.25 1016.96 1016.95 1016.69 1016.24 1016.25 1016.86 1016.45 1016.58 1016.88 1017.11 1016.41 1012.83 1011.17 1009.51 1008.08 1007.65 1007.25 1007.35 1007.34 1007.30 1007.29
1027.38 1027.34 1026.97 1026.38 1025.94 1025.55 1025.05 1024.12 1023.22 1022.54 1021.77 1021.52 1021.13 1021.46 1021.67 1021.09 1020.49 1020.07 1019.97 1018.98 1017.46 1017.02 1016.85 1016.94 1017.15 1016.90 1016.46 1016.09 1015.92 1015.65 1015.57 1015.66 1015.86 1015.27 1014.56 1011.75 1010.49 1009.39 1009.12 1008.68 1007.88 1007.56 1007.16 1007.00 1006.92
1027.35 1027.63 1027.39 1027.09 1026.67 1026.20 1025.56 1024.95 1024.18 1023.87 1023.52 1022.69 1022.67 1022.76 1022.69 1022.47 1022.41 1022.00 1021.81 1021.20 1020.02 1018.59 1018.34 1018.11 1017.56 1017.15 1016.67 1015.90 1015.53 1014.73 1014.21 1014.10 1014.01 1013.66 1012.28 1012.01 1008.51 1009.20 1007.99 1007.88 1007.44 1006.96 1006.69 1006.46 1006.31
1027.20 1027.36 1027.49 1027.35 1027.06 1026.76 1026.26 1025.56 1025.04 1024.94 1024.29 1023.94 1023.98 1023.74 1023.27 1022.94 1023.04 1022.64 1022.21 1021.76 1021.12 1020.70 1020.15 1019.63 1018.59 1018.24 1017.18 1016.29 1015.40 1012.73 1011.86 1011.98 1011.53 1010.91 1010.76 1010.06 1006.46 1007.38 1007.17 1006.88 1006.45 1006.29 1006.16 1005.86 1005.38
Thickness
5676 5676 5678 5679 5680 5682 5684 5687 5690 5693 5697 5702 5707 5712 5715 5718 5724 5726 5720 5730 5729 5729 5727 5725 5725 5722 5724 5718 5722 5717 5686 5681 5701 5702 5718 5731 5730 5738 5742 5733 5735 5734 5730 5737 5735
5674 5675 5677 5678 5679 5682 5685 5687 5690 5694 5698 5702 5707 5712 5715 5718 5720 5721 5736 5735 5731 5728 5724 5717 5712 5714 5707 5712 5710 5699 5680 5692 5713 5718 5720 5728 5732 5731 5733 5730 5731 5732 5734 5735 5733
5674 5675 5677 5679 5680 5682 5685 5688 5691 5695 5699 5704 5708 5712 5716 5718 5717 5727 5739 5735 5731 5727 5724 5721 5717 5712 5702 5708 5707 5699 5688 5705 5716 5725 5729 5729 5730 5734 5727 5721 5732 5733 5734 5732 5730
5675 5676 5677 5679 5681 5683 5686 5690 5693 5697 5700 5705 5709 5712 5716 5717 5699 5736 5739 5736 5732 5728 5723 5717 5712 5701 5695 5693 5705 5696 5708 5711 5716 5723 5726 5724 5731 5730 5728 5740 5750 5748 5741 5735 5732
5675 5676 5678 5680 5682 5684 5688 5692 5696 5699 5703 5706 5709 5712 5717 5710 5715 5741 5739 5736 5733 5728 5718 5713 5704 5698 5690 5691 5699 5698 5705 5711 5714 5718 5723 5727 5725 5727 5733 5745 5748 5744 5739 5738 5737
5675 5677 5679 5681 5684 5687 5691 5695 5699 5702 5705 5708 5710 5711 5712 5699 5738 5739 5737 5735 5731 5725 5718 5714 5706 5705 5697 5697 5695 5703 5705 5707 5712 5715 5719 5719 5722 5729 5741 5747 5742 5740 5741 5740 5741
5674 5677 5679 5683 5686 5690 5694 5699 5703 5706 5708 5709 5710 5710 5709 5712 5738 5736 5735 5734 5733 5727 5716 5716 5713 5705 5702 5696 5705 5704 5696 5699 5708 5713 5714 5718 5713 5720 5741 5743 5740 5738 5739 5741 5745
5673 5676 5679 5683 5687 5692 5698 5703 5708 5711 5711 5711 5710 5709 5705 5735 5736 5735 5735 5731 5733 5731 5724 5722 5719 5708 5702 5704 5694 5693 5686 5678 5706 5707 5715 5714 5700 5735 5743 5739 5740 5737 5737 5741 5746
5672 5675 5679 5683 5688 5694 5702 5708 5712 5714 5712 5710 5708 5706 5705 5736 5730 5736 5735 5725 5727 5728 5725 5724 5716 5698 5697 5682 5672 5673 5671 5677 5688 5706 5710 5708 5706 5733 5741 5738 5741 5740 5741 5744 5749
5669 5673 5677 5682 5687 5695 5704 5711 5712 5711 5710 5709 5709 5698 5717 5720 5731 5734 5735 5731 5722 5719 5711 5708 5693 5684 5676 5672 5664 5677 5677 5683 5682 5708 5706 5705 5711 5732 5739 5742 5742 5744 5746 5748 5754
5666 5670 5675 5681 5685 5694 5702 5706 5694 5697 5698 5701 5701 5702 5712 5726 5733 5728 5731 5724 5719 5705 5690 5695 5682 5676 5688 5687 5692 5692 5689 5686 5695 5711 5707 5705 5713 5737 5749 5743 5745 5747 5748 5753 5761
5664 5668 5672 5678 5683 5688 5692 5682 5671 5669 5674 5701 5702 5701 5710 5717 5708 5720 5728 5710 5704 5689 5694 5681 5676 5694 5699 5698 5696 5695 5690 5684 5698 5714 5708 5709 5719 5744 5755 5757 5764 5765 5763 5765 5766
5659 5664 5669 5675 5681 5682 5677 5673 5674 5675 5666 5695 5707 5707 5712 5713 5704 5709 5717 5709 5699 5689 5689 5677 5693 5703 5699 5701 5696 5693 5690 5691 5693 5701 5707 5703 5718 5744 5766 5766 5769 5776 5786 5782 5781
5655 5659 5664 5672 5675 5672 5674 5675 5676 5677 5659 5691 5704 5713 5716 5713 5702 5718 5717 5708 5697 5688 5684 5684 5697 5697 5695 5692 5693 5685 5699 5700 5697 5687 5679 5701 5686 5731 5759 5765 5769 5775 5778 5788 5787
5649 5654 5658 5662 5662 5666 5670 5674 5677 5673 5656 5700 5704 5722 5715 5704 5706 5708 5716 5709 5691 5692 5688 5684 5694 5694 5690 5690 5694 5686 5698 5694 5694 5683 5681 5688 5679 5731 5755 5770 5781 5784 5788 5794 5795
5644 5649 5652 5655 5658 5664 5667 5672 5672 5657 5658 5693 5702 5699 5697 5699 5699 5703 5703 5707 5701 5692 5688 5684 5698 5696 5692 5694 5695 5693 5690 5677 5669 5667 5661 5684 5685 5726 5753 5774 5792 5798 5792 5798 5796
5638 5644 5646 5650 5655 5660 5663 5664 5650 5648 5690 5689 5689 5693 5688 5685 5689 5691 5688 5683 5672 5664 5664 5674 5684 5696 5698 5688 5687 5679 5662 5645 5660 5657 5663 5691 5683 5731 5762 5777 5787 5799 5801 5799 5799
5631 5637 5642 5646 5649 5651 5653 5649 5646 5670 5671 5691 5687 5682 5678 5680 5681 5681 5675 5666 5675 5669 5653 5657 5663 5681 5691 5687 5678 5670 5664 5640 5660 5653 5665 5682 5689 5742 5774 5782 5787 5794 5799 5805 5801
5622 5627 5630 5638 5640 5640 5637 5629 5646 5656 5667 5671 5680 5671 5671 5678 5679 5672 5664 5662 5671 5669 5654 5648 5662 5679 5683 5685 5686 5667 5655 5665 5659 5651 5645 5677 5712 5754 5772 5777 5785 5791 5798 5800 5801
5605 5609 5615 5625 5629 5628 5620 5628 5639 5653 5656 5659 5660 5665 5660 5668 5663 5659 5659 5673 5674 5673 5678 5667 5653 5669 5675 5679 5673 5673 5668 5649 5638 5646 5650 5669 5686 5719 5751 5764 5774 5782 5788 5790 5793
5592 5592 5609 5614 5617 5615 5605 5610 5630 5642 5644 5643 5645 5648 5655 5659 5657 5654 5662 5674 5676 5670 5670 5663 5655 5658 5665 5661 5654 5654 5654 5648 5639 5632 5639 5642 5689 5733 5750 5754 5758 5770 5779 5786 5789
5574 5573 5597 5602 5601 5599 5606 5614 5629 5630 5632 5631 5638 5640 5644 5635 5647 5645 5652 5662 5673 5665 5656 5660 5642 5640 5651 5665 5665 5663 5659 5652 5631 5645 5628 5632 5678 5740 5746 5750 5758 5762 5770 5778 5786
5554 5557 5581 5586 5590 5578 5592 5607 5614 5616 5617 5618 5618 5626 5625 5625 5622 5638 5651 5663 5662 5664 5655 5653 5636 5629 5642 5651 5654 5655 5655 5655 5645 5635 5636 5631 5690 5742 5739 5747 5754 5754 5762 5766 5774
5538 5537 5552 5558 5561 5573 5581 5587 5596 5606 5605 5602 5608 5610 5612 5616 5617 5624 5632 5646 5649 5655 5653 5650 5632 5635 5633 5651 5648 5643 5648 5647 5650 5627 5640 5680 5700 5728 5744 5745 5753 5756 5753 5759 5763
5521 5523 5531 5530 5548 5548 5550 5558 5570 5576 5589 5588 5591 5585 5583 5592 5600 5604 5602 5611 5633 5639 5642 5635 5626 5630 5635 5642 5645 5650 5652 5645 5636 5656 5647 5685 5688 5717 5717 5721 5734 5736 5740 5746 5753
5509 5506 5509 5513 5519 5528 5537 5540 5548 5545 5555 5565 5568 5557 5561 5568 5570 5577 5572 5583 5595 5606 5610 5609 5614 5624 5629 5637 5634 5638 5650 5651 5648 5656 5662 5661 5693 5712 5723 5723 5721 5732 5737 5741 5743
5489 5490 5493 5498 5498 5503 5503 5520 5525 5526 5531 5537 5534 5540 5542 5550 5548 5554 5563 5569 5576 5576 5580 5586 5594 5596 5600 5622 5620 5639 5659 5662 5670 5674 5669 5660 5711 5718 5715 5716 5723 5725 5729 5734 5746